THORAD AGENA D DEB, 4174

Orbit data source: Space-Track

THORAD AGENA D DEB, 4174 is space debris in LEO originally from a launch on Tue, 30 Sep 1969 UTC launched from the Air Force Western Test Range (AFWTR). Debris objects in space refer to the collection of defunct objects orbiting the Earth. Examples of debris include non-operational satellites, rocket bodies, and fragments generated from explosions, collisions, or faulty payload assembly.

Loading next visibility...
Identifier
4174, 1969-082AS
Orbit
LEO
Country
Flag of USUS
Related business
Manufacturer
Unknown
Mission
Spacecraft
Bus & Motor
Unknown
Mass
Unknown
Launch date (UTC)
1969-09-30 (57 years ago)
Launch vehicle
Unknown
Launch site
Air Force Western Test Range (AFWTR)
Object type
Payload
Rocket body
Debris
Shape & HBR
Unknown shape, 0.1 m
Radar Cross Section
Medium (>0.1 m² and <1 m²)

Expand to show TLE details & history
Last TLE update: 2 days ago

TLE from 2 days ago
0 THORAD AGENA D DEB
1  4174U 69082AS  26171.43731983  .00000546  00000-0  20946-3 0  9995
2  4174  69.9909 292.4028 0046091 314.1798  45.5543 14.35069746942309
Epoch: 2026-06-20T10:29Z
TLE epoch observation values (Epoch: 2026-06-20T10:29:44.433Z)
Latitude
-0.00007°
Longitude
-133.68432°
Altitude
754.178 km
Speed
7.49 km/s
True Right ascension
19h 29m 36s
True Declination
0° 00' 00"
Sunlit
Object was in full shadow at epoch
Visualization orbit readout
Latitude
Unknown
Longitude
Unknown
Altitude
Unknown
Speed
Unknown
Apparent Right ascension
Unknown
Apparent Declination
Unknown
Sunlit
N/A
Visualization observer readout
Local Sidereal Time
07:03:53
Azimuth
Unknown
Elevation
Unknown
Doppler factor
Unknown
Orbital elements
Apogee altitude
805.802 km
Perigee altitude
739.883 km
Semi-major axis
7,150.979 km
Eccentricity
0.00461
Inclination
69.9909°
RAAN
292.4028°
Arg. of periapsis
314.1798°
True anomaly
45.93289°
Mean anomaly
45.5543°
Eccentric anomaly
45.74344°
Mean motion
3.58918 °/min
Orbital period
100.3 mins
BSTAR
0.00020946

Documentation

Showing up to 5 results
|